sat.trackr.live / text

‹ back to catalog

INHA-ROSAT

NORAD 66653 · 2025-274D

PAYLOAD ACTIVE UNKNOWN

§ Identity

Operator
Country
SKOR
Launch date
2025-11-26
Launch site
NSC
Launch vehicle
Mass (kg)
RCS (m²)

External: N2YO · Heavens-Above · Gunter

§ Orbital elements

Epoch: 2026-09-20T09:16:37.744608Z

Period
96.45 min
Inclination
97.7485°
Eccentricity
0.0013679
Mean motion
14.93006415 rev/d
Perigee alt
579.0 km
Apogee alt
598.1 km
Semi-major
6,966.7 km
B*
8.1442e-5
RAAN
191.0194°
Arg perigee
44.2199°
Mean anomaly
316.0112°
Rev number
4,441

§ Raw data

INHA-ROSAT1 66653U 25274D   26263.38654797  .00000791  00000+0  81442-4 0  99932 66653  97.7485 191.0194 0013679  44.2199 316.0112 14.93006415 44418

JSON: /api/v1/satellites/66653 · /tle

For live sub-satellite position, see the globe view (requires WebGL).

§ Visibility from observer

Set your observer location to see the next 7 days of passes ≥ 10°. The values pass through the URL so the page stays shareable.

No JS? Fill the form by hand. The geolocation button needs JavaScript.

§ Radio — SatNOGS DB

ModeDescriptionDownlinkUplink
QPSK Mode S - QPSK 1 Msps - Transmitter 2.417 GHz
GFSK Mode U - GFSK9k6 - Transmitter 437.665 MHz

2 transmitters · refreshed weekly from db.satnogs.org